• En Colombia
  • Lista de países
  • Para 7 días
  • Temperatura del agua
  • El tiempo en el mapa
  • Informadores
  • user-avatar
    Iniciar sesión

    Tiempo cada hora Gold Coast

    Hoy, 27 Enero, Lunes

    Tiempo Temperatura Precipitaciones Viento Presión Humedad
    00:00 +23°C° 0.1 mm 2 mps 756 mmHg 95%
    01:00 +23°C° 0.1 mm 2 mps 756 mmHg 96%
    02:00 +23°C° 0.3 mm 2 mps 756 mmHg 96%
    03:00 +24°C° 0.3 mm 2 mps 756 mmHg 96%
    04:00 +24°C° 0 mm 2 mps 756 mmHg 94%
    05:00 +24°C° 0.1 mm 2 mps 756 mmHg 93%
    06:00 +25°C° 0.1 mm 2 mps 756 mmHg 92%
    07:00 +25°C° 0.1 mm 2 mps 757 mmHg 91%
    08:00 +27°C° 0.1 mm 2 mps 757 mmHg 81%
    09:00 +28°C° 0.1 mm 2 mps 757 mmHg 72%
    10:00 +30°C° 0 mm 2 mps 757 mmHg 62%
    11:00 +31°C° 0 mm 2 mps 756 mmHg 58%
    12:00 +31°C° 0 mm 2 mps 756 mmHg 54%
    13:00 +31°C° 0 mm 3 mps 756 mmHg 50%
    14:00 +31°C° 0 mm 3 mps 755 mmHg 52%
    15:00 +30°C° 0 mm 3 mps 755 mmHg 54%
    16:00 +30°C° 0 mm 3 mps 755 mmHg 56%
    17:00 +28°C° 0 mm 3 mps 755 mmHg 67%
    18:00 +26°C° 0 mm 3 mps 756 mmHg 77%
    19:00 +25°C° 0 mm 3 mps 756 mmHg 87%
    20:00 +24°C° 0 mm 3 mps 756 mmHg 90%
    21:00 +24°C° 0 mm 3 mps 757 mmHg 93%
    22:00 +24°C° 0 mm 2 mps 757 mmHg 95%
    23:00 +23°C° 0.1 mm 2 mps 757 mmHg 96%

    Mañana, 28 Enero, Martes

    Tiempo Temperatura Precipitaciones Viento Presión Humedad
    00:00 +23°C° 0.1 mm 2 mps 757 mmHg 96%
    01:00 +23°C° 0.1 mm 2 mps 756 mmHg 96%
    02:00 +23°C° 0 mm 1 mps 756 mmHg 96%
    03:00 +23°C° 0 mm 1 mps 756 mmHg 96%
    04:00 +22°C° 0 mm 1 mps 756 mmHg 96%
    05:00 +23°C° 0 mm 1 mps 756 mmHg 93%
    06:00 +24°C° 0 mm 1 mps 756 mmHg 90%
    07:00 +25°C° 0 mm 1 mps 757 mmHg 88%
    08:00 +27°C° 0 mm 1 mps 757 mmHg 78%
    09:00 +28°C° 0 mm 2 mps 757 mmHg 69%
    10:00 +30°C° 0 mm 2 mps 757 mmHg 60%
    11:00 +30°C° 0 mm 2 mps 757 mmHg 56%
    12:00 +31°C° 0 mm 3 mps 756 mmHg 53%
    13:00 +33°C° 0 mm 3 mps 756 mmHg 50%
    14:00 +31°C° 0 mm 3 mps 755 mmHg 52%
    15:00 +31°C° 0 mm 3 mps 755 mmHg 55%
    16:00 +30°C° 0 mm 4 mps 754 mmHg 57%
    17:00 +28°C° 0 mm 3 mps 755 mmHg 66%
    18:00 +26°C° 0 mm 3 mps 755 mmHg 75%
    19:00 +25°C° 0 mm 3 mps 756 mmHg 85%
    20:00 +24°C° 0 mm 2 mps 756 mmHg 88%
    21:00 +24°C° 0 mm 2 mps 757 mmHg 91%
    22:00 +23°C° 0 mm 2 mps 757 mmHg 95%
    23:00 +23°C° 0 mm 2 mps 757 mmHg 95%

    Pasado mañana, 29 Enero, Miércoles

    Tiempo Temperatura Precipitaciones Viento Presión Humedad
    00:00 +23°C° 0 mm 2 mps 757 mmHg 96%
    01:00 +23°C° 0 mm 2 mps 756 mmHg 96%
    02:00 +23°C° 0 mm 2 mps 756 mmHg 96%
    03:00 +21°C° 0 mm 2 mps 756 mmHg 97%
    04:00 +21°C° 0 mm 2 mps 756 mmHg 97%
    05:00 +24°C° 0 mm 2 mps 756 mmHg 92%
    06:00 +25°C° 0 mm 2 mps 757 mmHg 87%
    07:00 +26°C° 0 mm 2 mps 757 mmHg 82%
    08:00 +28°C° 0 mm 2 mps 757 mmHg 72%
    09:00 +31°C° 0 mm 2 mps 757 mmHg 63%
    10:00 +34°C° 0 mm 2 mps 757 mmHg 54%
    11:00 +34°C° 0 mm 3 mps 757 mmHg 54%
    12:00 +34°C° 0 mm 3 mps 757 mmHg 54%
    13:00 +34°C° 0 mm 3 mps 757 mmHg 54%
    14:00 +33°C° 0 mm 3 mps 756 mmHg 57%
    15:00 +31°C° 0 mm 3 mps 756 mmHg 60%
    16:00 +30°C° 0 mm 3 mps 756 mmHg 62%
    17:00 +28°C° 0 mm 3 mps 756 mmHg 69%
    18:00 +27°C° 0 mm 3 mps 756 mmHg 76%
    19:00 +25°C° 0 mm 2 mps 757 mmHg 84%
    20:00 +24°C° 0 mm 2 mps 757 mmHg 87%
    21:00 +24°C° 0 mm 2 mps 758 mmHg 90%
    22:00 +23°C° 0 mm 1 mps 758 mmHg 93%
    23:00 +23°C° 0 mm 1 mps 758 mmHg 93%

    30 Enero, Jueves

    Tiempo Temperatura Precipitaciones Viento Presión Humedad
    00:00 +22°C° 0 mm 1 mps 758 mmHg 93%
    01:00 +22°C° 0 mm 1 mps 758 mmHg 94%
    02:00 +22°C° 0 mm 1 mps 757 mmHg 94%
    03:00 +22°C° 0 mm 1 mps 757 mmHg 94%
    04:00 +22°C° 0 mm 1 mps 757 mmHg 94%
    05:00 +23°C° 0 mm 1 mps 758 mmHg 88%
    06:00 +24°C° 0 mm 2 mps 758 mmHg 82%
    07:00 +26°C° 0 mm 2 mps 758 mmHg 76%
    08:00 +27°C° 0 mm 2 mps 759 mmHg 68%
    09:00 +29°C° 0 mm 3 mps 759 mmHg 60%
    10:00 +31°C° 0 mm 3 mps 759 mmHg 52%
    11:00 +31°C° 0 mm 3 mps 759 mmHg 51%
    12:00 +33°C° 0 mm 4 mps 758 mmHg 50%
    13:00 +33°C° 0 mm 4 mps 758 mmHg 48%
    14:00 +32°C° 0 mm 4 mps 757 mmHg 52%
    15:00 +30°C° 0 mm 4 mps 757 mmHg 55%
    16:00 +30°C° 0 mm 4 mps 757 mmHg 59%
    17:00 +28°C° 0 mm 4 mps 757 mmHg 68%
    18:00 +26°C° 0 mm 3 mps 758 mmHg 77%
    19:00 +24°C° 0 mm 3 mps 758 mmHg 86%
    20:00 +24°C° 0 mm 3 mps 758 mmHg 89%
    21:00 +24°C° 0 mm 3 mps 759 mmHg 92%
    22:00 +23°C° 0 mm 2 mps 759 mmHg 95%
    23:00 +23°C° 0.1 mm 2 mps 759 mmHg 94%

    31 Enero, Viernes

    Tiempo Temperatura Precipitaciones Viento Presión Humedad
    00:00 +23°C° 0.1 mm 2 mps 759 mmHg 94%
    01:00 +24°C° 0.1 mm 2 mps 758 mmHg 93%
    02:00 +24°C° 0.1 mm 2 mps 758 mmHg 94%
    03:00 +24°C° 0.1 mm 3 mps 758 mmHg 94%
    04:00 +22°C° 0.1 mm 3 mps 758 mmHg 94%
    05:00 +24°C° 0 mm 3 mps 759 mmHg 92%
    06:00 +25°C° 0 mm 3 mps 759 mmHg 89%
    07:00 +25°C° 0 mm 3 mps 759 mmHg 87%
    08:00 +27°C° 0 mm 3 mps 760 mmHg 76%
    09:00 +28°C° 0 mm 3 mps 760 mmHg 65%
    10:00 +30°C° 0 mm 3 mps 760 mmHg 55%
    11:00 +30°C° 0 mm 3 mps 760 mmHg 54%
    12:00 +32°C° 0 mm 4 mps 759 mmHg 53%
    13:00 +32°C° 0 mm 4 mps 759 mmHg 52%
    14:00 +30°C° 0 mm 4 mps 758 mmHg 55%
    15:00 +30°C° 0 mm 4 mps 758 mmHg 58%
    16:00 +29°C° 0 mm 4 mps 758 mmHg 61%
    17:00 +28°C° 0 mm 3 mps 758 mmHg 69%
    18:00 +26°C° 0 mm 3 mps 759 mmHg 76%
    19:00 +24°C° 0 mm 3 mps 759 mmHg 84%
    20:00 +24°C° 0 mm 3 mps 759 mmHg 87%
    21:00 +22°C° 0 mm 3 mps 760 mmHg 89%
    22:00 +23°C° 0 mm 2 mps 760 mmHg 92%
    23:00 +23°C° 0 mm 2 mps 760 mmHg 91%

    1 Febrero, Sábado

    Tiempo Temperatura Precipitaciones Viento Presión Humedad
    00:00 +23°C° 0 mm 2 mps 760 mmHg 90%
    01:00 +23°C° 0 mm 2 mps 759 mmHg 90%
    02:00 +23°C° 0 mm 2 mps 759 mmHg 90%
    03:00 +23°C° 0 mm 2 mps 759 mmHg 90%
    04:00 +23°C° 0 mm 2 mps 759 mmHg 90%
    05:00 +24°C° 0 mm 2 mps 759 mmHg 86%
    06:00 +25°C° 0 mm 2 mps 759 mmHg 82%
    07:00 +26°C° 0 mm 2 mps 760 mmHg 78%
    08:00 +27°C° 0 mm 2 mps 760 mmHg 70%
    09:00 +29°C° 0 mm 2 mps 760 mmHg 63%
    10:00 +30°C° 0 mm 3 mps 760 mmHg 56%
    11:00 +30°C° 0 mm 3 mps 759 mmHg 54%
    12:00 +31°C° 0 mm 3 mps 759 mmHg 52%
    13:00 +32°C° 0 mm 4 mps 758 mmHg 50%
    14:00 +32°C° 0 mm 4 mps 758 mmHg 51%
    15:00 +30°C° 0 mm 4 mps 757 mmHg 51%
    16:00 +29°C° 0 mm 4 mps 757 mmHg 52%
    17:00 +27°C° 0 mm 3 mps 757 mmHg 63%
    18:00 +25°C° 0 mm 2 mps 757 mmHg 74%
    19:00 +23°C° 0 mm 2 mps 758 mmHg 85%
    20:00 +23°C° 0 mm 1 mps 758 mmHg 87%
    21:00 +23°C° 0 mm 1 mps 758 mmHg 89%
    22:00 +22°C° 0 mm 1 mps 759 mmHg 91%
    23:00 +23°C° 0 mm 1 mps 758 mmHg 89%
    Mostrar más